User: anonymous   Login
Location: Alvis C Story Elementary School
(33.0968°N, 96.6364°W)
Time: 14:44:25
(UTC+00:00)
Language:

Nadezhda 4 Rocket - Orbit

View from above orbital plane
View from above orbital plane
View from above satellite
View from above satellite

Ground track
Ground track

The orbit data is extracted from the following two-line orbital elements,

1 23180U 94041B   22137.69499446  .00000081  00000-0  65116-4 0  9990
2 23180  82.9495  34.9049 0027819 228.4999 149.8676 13.78044278399772
Epoch (UTC): 17 May 2022 16:40:47
Eccentricity: 0.0027819
inclination: 82.9495°
perigee height: 950 km
apogee height: 991 km
right ascension of ascending node: 34.9049°
argument of perigee: 228.4999°
revolutions per day: 13.78044278
mean anomaly at epoch: 149.8676°
orbit number at epoch: 39977

The dashed part of the orbit path shows where the satellite is in the earth's shadow,  

DLR